Location: Rottenacker
(48.2350°N, 9.6886°E)
Time: 20:28:42
(UTC+01:00)

ISS - Pass Details

Date: 17 November 2017
Orbit: 401 x 407 km, 51.6° (Epoch: 18 November)

Event Time Altitude Azimuth Distance (km) Brightness Sun altitude
Exits shadow 04:48:30 15° 134° (SE) 1,204 -1.0 -26.9°
Drops below altitude 10° 04:49:07 10° 131° (SE) 1,450 -0.5 -26.8°
Sets 04:51:12 0° 127° (SE) 2,306 0.8 -26.5°
